DateTimeUTC,F1_A11,F1_S11,BsB_S11,BsG_S11,BsR_S11,BbsB_S11,BbsG_S11,BbsR_S11,BaB_A11,BaG_A11,BaR_A11,Tu_S11,T_S11,Uu_S11,U_S11,P_S11,T1_A11
2021-04-02T12:00:00Z,00000200,20000000,,,,,,,0000.59,0000.67,0000.42,16.5,23.4,02.0,01.3,0650.5,30.9
2021-04-02T12:01:00Z,00000200,20000000,,,,,,,0000.05,0000.10,0000.37,16.5,23.4,02.0,01.3,0650.5,30.9
2021-04-02T12:02:00Z,00000200,20000000,,,,,,,0000.25,0000.56,0000.34,16.5,23.5,02.0,01.3,0650.5,30.9
2021-04-02T12:03:00Z,00000200,60000000,,,,,,,0001.15,0000.29,0000.11,16.5,23.5,02.0,01.3,0650.4,30.9
2021-04-02T12:04:00Z,00000200,40000000,0001.12,0000.55,0000.34,0000.26,0000.12,0000.39,-000.01,0000.13,0000.43,16.6,23.3,02.4,01.6,0651.2,30.9
2021-04-02T12:05:00Z,00000200,00000000,0001.22,0000.69,0000.47,0000.37,0000.19,0000.59,0000.25,0000.58,0000.36,16.6,23.3,02.5,01.7,0651.3,30.9
2021-04-02T12:06:00Z,00000200,00000000,0001.21,0000.44,0000.40,0000.27,0000.15,0000.19,0000.21,-000.10,-000.35,16.6,23.2,02.4,01.6,0651.3,30.9
2021-04-02T12:07:00Z,00000200,00000000,0001.00,0000.45,0000.60,0000.06,0000.22,0000.25,0000.63,0000.76,0000.68,16.6,23.2,02.3,01.5,0651.2,30.9
2021-04-02T12:08:00Z,00000200,00000000,0000.65,0000.66,0000.26,0000.61,0000.06,0000.10,-002.22,-002.14,-001.36,16.6,23.2,02.1,01.4,0651.1,30.9
2021-04-02T12:09:00Z,00000200,01000000,0000.64,0000.62,0000.56,0000.41,0000.24,0000.17,0001.12,0000.73,0000.71,16.6,23.2,01.9,01.3,0651.2,30.9
2021-04-02T12:10:00Z,00000200,00000000,0001.54,0000.80,0000.04,0000.34,0000.35,0000.35,0000.85,0000.62,0000.23,16.7,23.2,02.0,01.3,0651.4,30.9
2021-04-02T12:11:00Z,00000200,00000000,0000.99,0000.55,0000.44,-000.17,0000.08,0000.31,0000.41,0000.55,0000.41,16.7,23.2,02.2,01.5,0651.2,30.9
2021-04-02T12:12:00Z,00000200,00000000,0000.66,0000.67,0000.43,0000.40,0000.12,0000.37,-000.88,-000.54,-000.49,16.7,23.2,02.2,01.4,0651.3,30.9
2021-04-02T12:13:00Z,00000200,00000000,0001.29,0000.93,0000.41,0000.66,-000.12,0000.28,-022.25,0002.24,0001.99,16.7,23.2,02.1,01.4,0651.2,30.9
2021-04-02T12:14:00Z,00000200,00000000,0001.09,0000.48,0000.55,-000.15,0000.20,0000.48,-316.92,0001.96,0001.44,16.7,23.2,02.7,01.8,0651.2,30.9
2021-04-02T12:15:00Z,00000200,00000000,0000.89,0000.67,0000.43,-000.24,-000.05,0000.37,0343.40,-000.27,0000.06,16.7,23.2,03.2,02.1,0651.3,30.9
2021-04-02T12:16:00Z,00000200,00000000,0000.46,0000.53,0000.54,-000.17,0000.20,0000.03,-001.44,-000.47,-000.90,16.7,23.2,02.9,01.9,0651.3,30.9
2021-04-02T12:17:00Z,00000200,00000000,0000.52,0000.58,0000.42,0000.38,0000.20,0000.39,-000.32,-000.59,-000.30,16.7,23.2,02.6,01.7,0651.2,30.9
2021-04-02T12:18:00Z,00000200,000C0000,-002.07,-000.54,-000.73,-000.87,-000.72,-000.95,0001.13,0000.96,0000.59,16.6,23.2,02.5,01.7,0651.3,30.9
2021-04-02T12:19:00Z,00000200,00080000,0001.12,0000.62,0000.25,-000.07,0000.16,-000.04,-000.40,-000.40,-000.10,16.6,23.2,02.5,01.7,0651.3,30.9
2021-04-02T12:20:00Z,00000200,00080000,0000.48,0000.64,0000.02,0000.09,0000.09,0000.05,0000.28,-000.16,0000.34,16.6,23.2,02.3,01.6,0651.4,30.9
2021-04-02T12:21:00Z,00000200,00000000,0000.22,0000.60,0000.29,0000.17,-000.01,0000.27,0001.04,0001.25,0000.67,16.6,23.2,02.6,01.7,0651.2,30.9
2021-04-02T12:22:00Z,00000200,00000000,0000.87,0000.65,0000.38,0000.08,-000.04,0000.08,0000.19,0000.47,-000.00,16.6,23.2,02.7,01.8,0651.3,30.9
2021-04-02T12:23:00Z,00000200,00000000,0000.79,0000.62,0000.43,-000.23,0000.24,0000.12,0001.18,0000.72,0000.44,16.6,23.2,02.7,01.8,0651.3,30.9
2021-04-02T12:24:00Z,00000200,00000000,0000.86,0000.45,0000.28,-000.23,0000.02,0000.26,-000.46,-000.34,0000.08,16.6,23.2,02.9,01.9,0651.4,30.9
2021-04-02T12:25:00Z,00000200,00000000,0001.27,0000.77,0000.51,0000.27,-000.10,0000.42,0000.84,0000.71,0000.36,16.6,23.2,02.8,01.9,0651.2,30.9
2021-04-02T12:26:00Z,00000200,00000000,0000.69,0000.62,0000.36,0000.54,0000.10,0000.14,-000.24,-000.42,0000.05,16.6,23.2,02.8,01.9,0651.2,30.9
2021-04-02T12:27:00Z,00000200,00000000,0000.24,0000.62,0000.50,0000.05,0000.00,0000.16,0000.31,0000.40,0000.44,16.6,23.1,02.9,01.9,0651.2,30.9
2021-04-02T12:28:00Z,00000200,00000000,0000.21,0000.61,0000.27,0000.09,0000.05,0000.20,-000.49,-000.56,-000.46,16.6,23.1,02.7,01.8,0651.1,30.9
2021-04-02T12:29:00Z,00000200,00000000,0000.66,0000.59,0000.02,0000.08,0000.18,0000.09,-001.01,-000.47,-000.61,16.5,23.1,02.4,01.6,0651.2,30.9
2021-04-02T12:30:00Z,00000200,00000000,0000.79,0000.52,0000.36,0000.25,0000.02,0000.33,-000.59,-000.80,-000.37,16.6,23.1,02.1,01.4,0651.2,30.9
2021-04-02T12:31:00Z,00000200,01000000,0001.64,0000.70,0000.47,0000.33,0000.04,0000.21,0000.39,0000.56,0000.45,16.5,23.1,01.8,01.2,0651.2,30.9
2021-04-02T12:32:00Z,00000200,00000000,0000.54,0000.42,0000.44,0000.24,0000.24,0000.33,0000.88,0000.74,0000.53,16.5,23.1,02.0,01.3,0651.4,30.9
2021-04-02T12:33:00Z,00000200,00000000,0000.59,0000.47,0000.60,-000.14,0000.14,0000.34,0001.30,0001.11,0000.79,16.5,23.1,02.2,01.5,0651.2,30.9
2021-04-02T12:34:00Z,00000200,000C0000,-004.50,-001.91,-001.08,-003.02,-001.63,-001.26,-001.11,-000.56,-000.60,16.5,23.1,02.3,01.5,0651.2,30.9
2021-04-02T12:35:00Z,00000200,01000000,0000.27,0000.63,0000.36,0000.16,-000.04,0000.30,0000.55,0000.58,0000.76,16.5,23.1,02.1,01.4,0651.2,30.9
2021-04-02T12:36:00Z,00000200,00000000,0001.27,0000.68,0000.69,0000.04,0000.09,0000.44,0001.89,0001.28,0000.74,16.5,23.1,02.4,01.6,0651.0,30.9
2021-04-02T12:37:00Z,00000200,00000000,0001.33,0000.58,0000.48,-000.26,0000.13,0000.46,-000.12,-000.00,-000.26,16.5,23.1,02.7,01.8,0651.1,30.9
2021-04-02T12:38:00Z,00000200,00000000,0000.23,0000.59,0000.48,0000.27,0000.15,0000.19,-000.01,-000.36,0000.42,16.5,23.1,02.6,01.7,0651.3,30.9
2021-04-02T12:39:00Z,00000200,00000000,0000.76,0000.65,0000.44,0000.05,0000.39,0000.39,0000.37,0000.98,0000.30,16.5,23.1,02.3,01.5,0651.0,30.9
2021-04-02T12:40:00Z,00000200,00000000,0000.78,0000.95,0000.29,0000.08,-000.09,0000.36,0000.39,-000.24,0000.13,16.5,23.1,02.5,01.6,0651.1,30.9
2021-04-02T12:41:00Z,00000200,00000000,0000.65,0000.62,0000.17,0000.12,0000.12,0000.37,0000.47,-000.02,0000.38,16.6,23.1,02.4,01.6,0651.2,30.9
2021-04-02T12:42:00Z,00000200,00000000,0000.69,0000.56,0000.50,0000.65,0000.12,0000.21,-000.47,0000.45,-000.14,16.6,23.1,02.5,01.7,0651.2,30.9
2021-04-02T12:43:00Z,00000200,00000000,0000.54,0000.83,0000.36,0000.74,0000.20,-000.00,-000.49,-000.66,-000.57,16.7,23.1,02.3,01.5,0651.1,30.9
2021-04-02T12:44:00Z,00000200,01000000,0001.17,0000.57,0000.38,0000.22,0000.29,0000.24,-000.98,-000.47,-000.30,16.7,23.2,01.9,01.3,0651.2,30.9
2021-04-02T12:45:00Z,00000200,01000000,0000.71,0000.33,0000.36,0000.03,0000.11,0000.17,0001.76,0001.19,0001.07,16.7,23.2,01.9,01.3,0651.3,30.9
2021-04-02T12:46:00Z,00000200,00000000,0000.87,0000.77,0000.57,0000.43,0000.19,0000.11,0000.45,0000.74,0000.35,16.7,23.2,02.1,01.4,0651.2,30.9
2021-04-02T12:47:00Z,00000200,00000000,0001.10,0000.85,0000.19,0000.79,0000.21,0000.26,-000.05,-000.65,0000.01,16.7,23.2,02.0,01.4,0651.2,30.9
2021-04-02T12:48:00Z,00000200,00000000,0000.47,0000.68,0000.49,0000.29,0000.23,0000.14,-000.40,0000.14,-000.54,16.7,23.2,02.1,01.4,0651.1,30.9
2021-04-02T12:49:00Z,00000200,01000000,0000.95,0000.95,0000.26,0000.12,0000.13,0000.21,-000.15,-000.37,-000.21,16.6,23.2,02.0,01.3,0651.2,30.9
2021-04-02T12:50:00Z,00000200,01000000,0001.09,0000.68,0000.20,-000.62,0000.08,0000.38,-000.70,-000.54,-000.02,16.7,23.2,01.7,01.2,0651.2,30.9
2021-04-02T12:51:00Z,00000200,01000000,0000.84,0000.62,0000.19,0000.29,0000.20,0000.19,0001.38,0000.86,0000.46,16.6,23.1,01.7,01.1,0651.4,30.9
2021-04-02T12:52:00Z,00000200,01000000,0000.77,0000.68,0000.32,0000.13,-000.30,0000.31,0000.40,0000.76,0000.88,16.6,23.1,01.8,01.2,0651.4,30.9
2021-04-02T12:53:00Z,00000200,00000000,0000.77,0000.96,0000.30,0000.15,0000.18,0000.20,0000.25,0000.62,-000.34,16.6,23.1,02.2,01.4,0651.2,30.9
2021-04-02T12:54:00Z,00000200,01000000,0001.30,0000.41,0000.42,0000.12,0000.26,0000.24,-000.45,-000.83,-000.20,16.6,23.1,01.9,01.3,0651.3,30.9
2021-04-02T12:55:00Z,00000200,01000000,0000.80,0000.42,0000.45,0000.29,0000.17,0000.19,0001.03,0000.89,0000.89,16.6,23.1,01.8,01.2,0651.2,30.9
2021-04-02T12:56:00Z,00000200,00000000,0000.73,0000.64,0000.44,0000.11,-000.00,0000.28,0001.44,0001.43,0000.88,16.6,23.1,02.0,01.4,0651.1,30.9
2021-04-02T12:57:00Z,00000200,40000000,,,,,,,0000.82,0000.36,0000.79,16.6,23.2,01.7,01.1,0651.5,30.9
2021-04-02T12:58:00Z,00000200,60000000,,,,,,,-003.83,0000.02,-000.48,16.4,23.3,02.3,01.5,0650.2,30.9
2021-04-02T12:59:00Z,00000200,20000000,,,,,,,0002.78,-000.68,-000.16,16.3,23.4,02.3,01.5,0650.1,30.9
